Conroe, Texas, United States (77301)
Lat: 30.31N, Lon: 95.46W
Wx Zone: TXZ199
Local Info
Past Weather Observations for Today

NOTE: This archive is for the closest National Weather Service station to Conroe. Information may differ from the station used for current weather conditions.

Click here for Long-term Archive

Time Weather Temperature Dewpoint Humidity Pressure Winds Precip Visibility
19:53
Overcast
75°F / 24°C 70°F / 21°C 83% 30.01 in
(1016 mb)
N 4.6 mph
(N 7 kph)
- 10SM
19:39
Mostly Cloudy
75°F / 24°C 70°F / 21°C 83% 29.98 in
(1015 mb)
N 4.6 mph
(N 7 kph)
- 10SM
19:24
Partly Cloudy
73°F / 23°C 70°F / 21°C 89% 29.98 in
(1015 mb)
N 5.8 mph
(N 9 kph)
- 10SM
18:53
Mostly Cloudy
75°F / 24°C 70°F / 21°C 83% 29.98 in
(1015 mb)
N 9.2 mph
(N 15 kph)
- 10SM
18:49
Mostly Cloudy
75°F / 24°C 70°F / 21°C 83% 29.98 in
(1015 mb)
N 6.9 mph
(N 11 kph)
- 10SM
17:53
Partly Cloudy
79°F / 26°C 70°F / 21°C 74% 29.98 in
(1015 mb)
N 9.2 mph
(N 15 kph)
- 10SM
16:53
Partly Cloudy
82°F / 28°C 70°F / 21°C 66% 29.98 in
(1015 mb)
NNW 11.5 mph
(NNW 19 kph)
- 10SM
15:53
Mostly Cloudy
82°F / 28°C 70°F / 21°C 66% 29.98 in
(1015 mb)
NNW 11.5 mph
(NNW 19 kph)
- 10SM
14:53
Partly Cloudy
84°F / 29°C 70°F / 21°C 62% 29.98 in
(1015 mb)
NNW 10.4 mph
(NNW 17 kph)
- 10SM
13:53
Mostly Cloudy
82°F / 28°C 70°F / 21°C 66% 30.01 in
(1016 mb)
NW 9.2 mph
(NW 15 kph)
- 8SM
12:53
Mostly Cloudy
82°F / 28°C 70°F / 21°C 66% 30.01 in
(1016 mb)
NNW 9.2 mph
(NNW 15 kph)
- 10SM
11:53
Overcast
81°F / 27°C 70°F / 21°C 70% 30.01 in
(1016 mb)
NNW 10.4 mph
(NNW 17 kph)
- 10SM
10:53
Overcast
81°F / 27°C 70°F / 21°C 70% 30.01 in
(1016 mb)
NW 8.1 mph
(NW 13 kph)
- 10SM
10:42
Overcast
81°F / 27°C 70°F / 21°C 70% 30.01 in
(1016 mb)
WNW 8.1 mph
(WNW 13 kph)
- 10SM
09:53
Overcast
79°F / 26°C 70°F / 21°C 74% 30.01 in
(1016 mb)
NW 6.9 mph
(NW 11 kph)
- 10SM
08:53
Overcast
77°F / 25°C 70°F / 21°C 79% 30.01 in
(1016 mb)
NNW 9.2 mph
(NNW 15 kph)
- 10SM
08:21
Mostly Cloudy
75°F / 24°C 70°F / 21°C 83% 30.01 in
(1016 mb)
NNW 10.4 mph
(NNW 17 kph)
- 10SM
07:53
Partly Cloudy
75°F / 24°C 72°F / 22°C 89% 30.01 in
(1016 mb)
NW 8.1 mph
(NW 13 kph)
- 10SM
07:23
Partly Cloudy
75°F / 24°C 72°F / 22°C 89% 29.98 in
(1015 mb)
NW 8.1 mph
(NW 13 kph)
- 10SM
06:53
Overcast
73°F / 23°C 72°F / 22°C 94% 29.98 in
(1015 mb)
NNW 5.8 mph
(NNW 9 kph)
- 10SM
05:53
Overcast
73°F / 23°C 70°F / 21°C 89% 29.98 in
(1015 mb)
NW 5.8 mph
(NW 9 kph)
- 10SM
05:00
Overcast
73°F / 23°C 72°F / 22°C 94% 29.98 in
(1015 mb)
NW 9.2 mph
(NW 15 kph)
- 10SM
04:53
Overcast
73°F / 23°C 72°F / 22°C 94% 29.98 in
(1015 mb)
NW 6.9 mph
(NW 11 kph)
- 10SM
04:44
Overcast
73°F / 23°C 72°F / 22°C 94% 29.98 in
(1015 mb)
NNW 4.6 mph
(NNW 7 kph)
- 10SM
04:37
Overcast
73°F / 23°C 72°F / 22°C 94% 29.98 in
(1015 mb)
NNW 5.8 mph
(NNW 9 kph)
- 10SM
04:00
Overcast
75°F / 24°C 73°F / 23°C 94% 29.98 in
(1015 mb)
SW 6.9 mph
(SW 11 kph)
- 10SM
03:53
Overcast
75°F / 24°C 73°F / 23°C 94% 29.98 in
(1015 mb)
SW 5.8 mph
(SW 9 kph)
- 10SM
03:21
Overcast
75°F / 24°C 73°F / 23°C 94% 29.95 in
(1014 mb)
SW 4.6 mph
(SW 7 kph)
- 10SM
03:07
Mostly Cloudy
75°F / 24°C 73°F / 23°C 94% 29.95 in
(1014 mb)
SSW 5.8 mph
(SSW 9 kph)
- 10SM
02:53
Mostly Cloudy
75°F / 24°C 73°F / 23°C 94% 29.95 in
(1014 mb)
SSW 3.5 mph
(SSW 6 kph)
- 10SM
02:36
Mostly Cloudy
75°F / 24°C 73°F / 23°C 94% 29.95 in
(1014 mb)
SW 4.6 mph
(SW 7 kph)
- 10SM
01:53
Mostly Cloudy
75°F / 24°C 73°F / 23°C 94% 29.95 in
(1014 mb)
SW 5.8 mph
(SW 9 kph)
- 10SM
01:15
Mostly Cloudy
73°F / 23°C 73°F / 23°C 100% 29.98 in
(1015 mb)
SW 6.9 mph
(SW 11 kph)
- 10SM
00:53
Partly Cloudy
73°F / 23°C 73°F / 23°C 100% 29.98 in
(1015 mb)
SW 9.2 mph
(SW 15 kph)
- 10SM
00:35
Mostly Cloudy
73°F / 23°C 73°F / 23°C 100% 29.95 in
(1014 mb)
S 10.4 mph
(S 17 kph)
- 10SM
00:23
Mostly Cloudy
73°F / 23°C 73°F / 23°C 100% 29.98 in
(1015 mb)
S 9.2 mph
(S 15 kph)
- 10SM
00:09
Overcast
73°F / 23°C 73°F / 23°C 100% 29.98 in
(1015 mb)
S 11.5 mph
(S 19 kph)
- 10SM
Time Weather Temperature Dewpoint Humidity Pressure Winds Precip Visibility


Weather for websites

WeatherForYou.com, LLC is not responsible for any damages or problems caused by this service. Current weather conditions are obtained from the closest station including government and personal stations which may have varying degrees of accuracy. Weather forecasts are derived from the NOAA NDFD. Like all things, this site belongs to Jesus Christ... He just trusts me to maintain it. If you have any questions or comments email webmaster@weatherforyou.com

Copyright © 2014, WeatherForYou.com LLC. All rights reserved.